This is the latest recevied weather packets stored in our database for station/object 1NW106. If no packets are shown the sender has not sent any weather packets the latest 10 day(s).
| Time | Temp. | Humidity | Pressure | Rain* | Wind** | Luminosity | Snow |
|---|---|---|---|---|---|---|---|
| 1788367907 | 23.33° C | 99% | 1005.9 hPa | 19.3 mm | - | - | - |
| 1788367307 | 23.33° C | 99% | 1006.1 hPa | 19.3 mm | - | - | - |
| 1788366707 | 23.33° C | 99% | 1006.3 hPa | 19.3 mm | - | - | - |
| 1788366107 | 23.33° C | 99% | 1006.4 hPa | 19.3 mm | - | - | - |
| 1788365507 | 23.33° C | 99% | 1006.5 hPa | 19.3 mm | - | - | - |
| 1788364907 | 23.33° C | 99% | 1006.7 hPa | 19.3 mm | - | - | - |
| 1788364307 | 23.33° C | 99% | 1006.7 hPa | 19.3 mm | - | - | - |
| 1788363707 | 23.33° C | 99% | 1006.7 hPa | 19.3 mm | - | - | - |
| 1788363107 | 23.33° C | 99% | 1006.8 hPa | 19.3 mm | - | - | - |
| 1788362507 | 23.33° C | 99% | 1006.8 hPa | 19.3 mm | - | - | - |
| 1788361907 | 23.33° C | 99% | 1006.8 hPa | 19.3 mm | - | - | - |
| 1788361307 | 23.33° C | 99% | 1006.9 hPa | 19.3 mm | - | - | - |
| 1788360707 | 23.33° C | 99% | 1006.9 hPa | 18.8 mm | - | - | - |
| 1788360107 | 23.33° C | 99% | 1006.9 hPa | 18.54 mm | - | - | - |
| 1788359507 | 22.78° C | 99% | 1006.9 hPa | 18.29 mm | - | - | - |
| 1788358908 | 22.78° C | 99% | 1006.8 hPa | 17.53 mm | - | - | - |
| 1788358308 | 22.78° C | 99% | 1006.6 hPa | 17.02 mm | - | - | - |
| 1788357707 | 22.78° C | 99% | 1006.5 hPa | 17.02 mm | - | - | - |
| 1788357107 | 22.78° C | 99% | 1006.4 hPa | 16.76 mm | - | - | - |
| 1788356507 | 22.78° C | 99% | 1006.2 hPa | 16.76 mm | - | - | - |
| 1788355907 | 22.78° C | 99% | 1006.2 hPa | 16.26 mm | - | - | - |
| 1788355307 | 22.78° C | 99% | 1006.2 hPa | 16.26 mm | - | - | - |
| 1788354707 | 22.78° C | 99% | 1006.2 hPa | 16.26 mm | - | - | - |
| 1788354107 | 23.33° C | 99% | 1006.4 hPa | 16 mm | - | - | - |
| 1788353507 | 23.33° C | 99% | 1006.5 hPa | 16 mm | - | - | - |
* Rain latest hour (hover to see other rain measurements)
** Current wind speed in m/s (hover to see current wind gust speed)